User: anonymous   Login
Location: Ballingbuur
(53.0000°N, 5.7667°E)
Time: 02:16:03
(UTC+00:00)
Language:

Cosmos 2227 Rocket - Orbit

View from above orbital plane
View from above orbital plane
View from above satellite
View from above satellite

Ground track
Ground track

The orbit data is extracted from the following two-line orbital elements,

1 22285U 92093B   21059.55224249 -.00000124  00000-0 -39371-4 0  9998
2 22285  71.0198 255.2411 0006212 241.5220 118.5277 14.15057898453555
Epoch (UTC): 28 February 2021 13:15:13
Eccentricity: 0.0006212
inclination: 71.0198°
perigee height: 837 km
apogee height: 846 km
right ascension of ascending node: 255.2411°
argument of perigee: 241.5220°
revolutions per day: 14.15057898
mean anomaly at epoch: 118.5277°
orbit number at epoch: 45355

The dashed part of the orbit path shows where the satellite is in the earth's shadow,  

DLR